When you browse on this site, cookies collect data to enhance your experience and personalize the content and advertising you see.
Visit our Privacy Policy to learn more. By continuing to use the site, you agree to this use of cookies and data.

Hourly Weather Pazardzhik

Today, 25 September, Friday

Time Temperature Precipitation Wind Pressure Humidity
00:00 +19°C° 0 mm 2 mps 740 mmHg 71%
01:00 +18°C° 0 mm 2 mps 740 mmHg 71%
02:00 +18°C° 0 mm 2 mps 740 mmHg 71%
03:00 +18°C° 0 mm 2 mps 740 mmHg 71%
04:00 +18°C° 0 mm 2 mps 740 mmHg 72%
05:00 +18°C° 0 mm 2 mps 740 mmHg 72%
06:00 +20°C° 0 mm 1 mps 740 mmHg 66%
07:00 +22°C° 0 mm 1 mps 739 mmHg 61%
08:00 +23°C° 0 mm 1 mps 739 mmHg 55%
09:00 +25°C° 0 mm 1 mps 739 mmHg 49%
10:00 +28°C° 0 mm 1 mps 739 mmHg 42%
11:00 +30°C° 0 mm 2 mps 739 mmHg 35%
12:00 +31°C° 0 mm 2 mps 738 mmHg 33%
13:00 +32°C° 0 mm 2 mps 737 mmHg 31%
14:00 +32°C° 0 mm 2 mps 737 mmHg 29%
15:00 +32°C° 0 mm 2 mps 736 mmHg 30%
16:00 +31°C° 0 mm 2 mps 736 mmHg 32%
17:00 +30°C° 0 mm 3 mps 735 mmHg 33%
18:00 +28°C° 0 mm 2 mps 735 mmHg 39%
19:00 +26°C° 0 mm 2 mps 735 mmHg 44%
20:00 +24°C° 0 mm 2 mps 735 mmHg 49%
21:00 +23°C° 0 mm 2 mps 735 mmHg 52%
22:00 +23°C° 0 mm 2 mps 734 mmHg 55%
23:00 +21°C° 0 mm 2 mps 734 mmHg 59%

Tomorrow, 26 September, Saturday

Time Temperature Precipitation Wind Pressure Humidity
00:00 +20°C° 0 mm 2 mps 734 mmHg 62%
01:00 +20°C° 0 mm 2 mps 733 mmHg 66%
02:00 +19°C° 0 mm 2 mps 733 mmHg 69%
03:00 +19°C° 0 mm 2 mps 732 mmHg 71%
04:00 +19°C° 0 mm 2 mps 732 mmHg 73%
05:00 +19°C° 0 mm 2 mps 731 mmHg 75%
06:00 +20°C° 0 mm 2 mps 731 mmHg 72%
07:00 +21°C° 0 mm 2 mps 731 mmHg 69%
08:00 +23°C° 0 mm 2 mps 730 mmHg 66%
09:00 +24°C° 0 mm 3 mps 731 mmHg 59%
10:00 +26°C° 0 mm 3 mps 731 mmHg 51%
11:00 +28°C° 0 mm 4 mps 731 mmHg 44%
12:00 +28°C° 0.1 mm 5 mps 730 mmHg 44%
13:00 +28°C° 0.1 mm 5 mps 730 mmHg 44%
14:00 +28°C° 0.1 mm 6 mps 729 mmHg 44%
15:00 +27°C° 0.2 mm 6 mps 729 mmHg 46%
16:00 +26°C° 0.2 mm 5 mps 729 mmHg 49%
17:00 +26°C° 0.2 mm 5 mps 729 mmHg 52%
18:00 +22°C° 0.2 mm 4 mps 729 mmHg 61%
19:00 +20°C° 0.2 mm 3 mps 730 mmHg 69%
20:00 +17°C° 0.2 mm 3 mps 730 mmHg 78%
21:00 +17°C° 0 mm 2 mps 731 mmHg 77%
22:00 +16°C° 0 mm 2 mps 731 mmHg 75%
23:00 +15°C° 0 mm 2 mps 732 mmHg 74%

Day after tomorrow, 27 September, Sunday

Time Temperature Precipitation Wind Pressure Humidity
00:00 +15°C° 0 mm 2 mps 732 mmHg 74%
01:00 +14°C° 0 mm 2 mps 733 mmHg 73%
02:00 +14°C° 0 mm 2 mps 733 mmHg 73%
03:00 +13°C° 0 mm 2 mps 734 mmHg 73%
04:00 +13°C° 0 mm 2 mps 735 mmHg 73%
05:00 +13°C° 0 mm 2 mps 735 mmHg 73%
06:00 +14°C° 0 mm 2 mps 736 mmHg 66%
07:00 +16°C° 0 mm 1 mps 736 mmHg 60%
08:00 +18°C° 0 mm 1 mps 736 mmHg 53%
09:00 +19°C° 0 mm 2 mps 737 mmHg 45%
10:00 +23°C° 0 mm 2 mps 737 mmHg 37%
11:00 +25°C° 0 mm 2 mps 737 mmHg 29%
12:00 +26°C° 0 mm 3 mps 737 mmHg 28%
13:00 +27°C° 0 mm 3 mps 737 mmHg 27%
14:00 +28°C° 0 mm 4 mps 737 mmHg 26%
15:00 +27°C° 0 mm 5 mps 737 mmHg 29%
16:00 +27°C° 0 mm 5 mps 737 mmHg 32%
17:00 +26°C° 0 mm 6 mps 738 mmHg 34%
18:00 +22°C° 0 mm 5 mps 738 mmHg 44%
19:00 +20°C° 0 mm 3 mps 739 mmHg 53%
20:00 +17°C° 0 mm 2 mps 739 mmHg 62%
21:00 +17°C° 0 mm 2 mps 740 mmHg 65%
22:00 +16°C° 0 mm 2 mps 740 mmHg 67%
23:00 +16°C° 0 mm 2 mps 741 mmHg 70%

28 September, Monday

Time Temperature Precipitation Wind Pressure Humidity
00:00 +16°C° 0 mm 2 mps 741 mmHg 71%
01:00 +15°C° 0 mm 2 mps 741 mmHg 72%
02:00 +15°C° 0 mm 2 mps 741 mmHg 72%
03:00 +15°C° 0 mm 2 mps 742 mmHg 72%
04:00 +15°C° 0 mm 2 mps 742 mmHg 72%
05:00 +15°C° 0 mm 2 mps 742 mmHg 72%
06:00 +16°C° 0 mm 1 mps 742 mmHg 67%
07:00 +18°C° 0 mm 1 mps 742 mmHg 61%
08:00 +20°C° 0 mm 1 mps 742 mmHg 55%
09:00 +22°C° 0 mm 1 mps 742 mmHg 49%
10:00 +24°C° 0 mm 2 mps 742 mmHg 42%
11:00 +26°C° 0 mm 2 mps 742 mmHg 35%
12:00 +27°C° 0 mm 3 mps 742 mmHg 33%
13:00 +28°C° 0 mm 3 mps 741 mmHg 32%
14:00 +29°C° 0 mm 4 mps 740 mmHg 30%
15:00 +29°C° 0 mm 4 mps 740 mmHg 32%
16:00 +28°C° 0 mm 4 mps 739 mmHg 34%
17:00 +28°C° 0 mm 4 mps 739 mmHg 36%
18:00 +26°C° 0 mm 3 mps 739 mmHg 44%
19:00 +22°C° 0 mm 3 mps 739 mmHg 52%
20:00 +20°C° 0 mm 3 mps 739 mmHg 59%
21:00 +20°C° 0 mm 2 mps 739 mmHg 63%
22:00 +19°C° 0 mm 2 mps 739 mmHg 66%
23:00 +20°C° 0 mm 1 mps 739 mmHg 70%

29 September, Tuesday

Time Temperature Precipitation Wind Pressure Humidity
00:00 +18°C° 0.3 mm 2 mps 739 mmHg 73%
01:00 +18°C° 0.3 mm 2 mps 738 mmHg 76%
02:00 +18°C° 0.3 mm 2 mps 738 mmHg 80%
03:00 +17°C° 2.3 mm 2 mps 738 mmHg 84%
04:00 +18°C° 2.3 mm 1 mps 738 mmHg 88%
05:00 +16°C° 2.3 mm 1 mps 738 mmHg 92%
06:00 +18°C° 0.1 mm 1 mps 739 mmHg 88%
07:00 +18°C° 0.1 mm 1 mps 739 mmHg 84%
08:00 +19°C° 0.1 mm 1 mps 739 mmHg 80%
09:00 +20°C° 0.1 mm 2 mps 739 mmHg 70%
10:00 +21°C° 0.1 mm 4 mps 739 mmHg 61%
11:00 +23°C° 0.1 mm 5 mps 739 mmHg 52%
12:00 +23°C° 0.1 mm 5 mps 740 mmHg 49%
13:00 +23°C° 0.1 mm 6 mps 740 mmHg 46%
14:00 +24°C° 0.1 mm 6 mps 740 mmHg 43%
15:00 +23°C° 0 mm 6 mps 740 mmHg 45%
16:00 +22°C° 0 mm 6 mps 740 mmHg 47%
17:00 +21°C° 0 mm 6 mps 740 mmHg 48%
18:00 +20°C° 0 mm 5 mps 740 mmHg 54%
19:00 +18°C° 0 mm 4 mps 741 mmHg 59%
20:00 +17°C° 0 mm 3 mps 741 mmHg 65%
21:00 +16°C° 0 mm 3 mps 742 mmHg 65%
22:00 +16°C° 0 mm 3 mps 742 mmHg 66%
23:00 +16°C° 0 mm 2 mps 742 mmHg 67%

30 September, Wednesday

Time Temperature Precipitation Wind Pressure Humidity
00:00 +16°C° 0 mm 2 mps 742 mmHg 68%
01:00 +15°C° 0 mm 2 mps 742 mmHg 69%
02:00 +15°C° 0 mm 2 mps 742 mmHg 70%
03:00 +15°C° 0 mm 2 mps 742 mmHg 70%
04:00 +15°C° 0 mm 2 mps 742 mmHg 71%
05:00 +14°C° 0 mm 2 mps 742 mmHg 72%
06:00 +14°C° 0 mm 3 mps 742 mmHg 66%
07:00 +17°C° 0 mm 3 mps 742 mmHg 60%
08:00 +18°C° 0 mm 3 mps 742 mmHg 54%
09:00 +20°C° 0 mm 3 mps 742 mmHg 48%
10:00 +22°C° 0 mm 4 mps 742 mmHg 43%
11:00 +23°C° 0 mm 5 mps 741 mmHg 37%
12:00 +25°C° 0 mm 4 mps 741 mmHg 35%
13:00 +26°C° 0 mm 4 mps 741 mmHg 34%
14:00 +26°C° 0 mm 4 mps 740 mmHg 32%
15:00 +26°C° 0 mm 4 mps 740 mmHg 34%
16:00 +25°C° 0 mm 4 mps 739 mmHg 36%
17:00 +25°C° 0 mm 3 mps 739 mmHg 38%
18:00 +21°C° 0 mm 3 mps 739 mmHg 44%
19:00 +19°C° 0 mm 2 mps 739 mmHg 51%
20:00 +18°C° 0 mm 1 mps 739 mmHg 57%
21:00 +18°C° 0 mm 1 mps 739 mmHg 58%
22:00 +16°C° 0 mm 1 mps 739 mmHg 60%
23:00 +16°C° 0 mm 2 mps 739 mmHg 61%
Show more